DW2004 Weather Reports


Display with metric or nautical units.
time (UTC)temp
F
wind
direction
speed
MPH
gust
MPH
rain 1hr
in
rain 24hr
in
rain mn
in
humidity
%
barometer
mb
20260504031003 72 186 0.0 6.0 0.00 0.00 0.00 45 1015.8
20260504030502 72 177 2.0 5.0 0.00 0.00 0.00 45 1015.8
20260504030010 72 205 1.0 5.0 0.00 0.00 0.00 44 1015.7
20260504025503 72 196 1.0 6.0 0.00 0.00 0.00 43 1015.7
20260504025003 73 195 1.0 6.0 0.00 0.00 0.00 43 1015.5
20260504024002 73 176 1.0 10.0 0.00 0.00 0.00 41 1015.6
20260504023503 74 184 2.0 10.0 0.00 0.00 0.00 41 1015.6
20260504023008 74 175 1.0 5.0 0.00 0.00 0.00 41 1015.6
20260504022504 74 171 1.0 7.0 0.00 0.00 0.00 40 1015.7
20260504022003 74 232 1.0 10.0 0.00 0.00 0.00 40 1015.6
20260504021506 74 187 3.0 9.0 0.00 0.00 0.00 40 1015.6
20260504021003 75 207 1.0 9.0 0.00 0.00 0.00 40 1015.5
20260504020503 75 186 1.0 9.0 0.00 0.00 0.00 40 1015.6
20260504020010 75 210 1.0 11.0 0.00 0.00 0.00 40 1015.6
20260504015504 75 255 5.0 11.0 0.00 0.00 0.00 39 1015.5
20260504015003 75 192 3.0 8.0 0.00 0.00 0.00 39 1015.4
20260504014506 75 180 2.0 9.0 0.00 0.00 0.00 39 1015.4
20260504013504 75 197 1.0 6.0 0.00 0.00 0.00 38 1015.3
20260504012504 76 161 2.0 7.0 0.00 0.00 0.00 38 1015.2
20260504012003 76 240 1.0 7.0 0.00 0.00 0.00 38 1015.2
20260504011507 76 211 1.0 6.0 0.00 0.00 0.00 38 1015.2
20260504011002 76 153 2.0 8.0 0.00 0.00 0.00 38 1015.1
20260504010008 76 215 1.0 6.0 0.00 0.00 0.00 38 1015.1
20260504005502 77 183 1.0 8.0 0.00 0.00 0.00 38 1015.0
20260504005003 77 190 1.0 10.0 0.00 0.00 0.00 37 1014.9
20260504004507 77 183 3.0 10.0 0.00 0.00 0.00 36 1015.0
20260504004003 78 184 2.0 10.0 0.00 0.00 0.00 36 1015.0
20260504003006 78 196 3.0 9.0 0.00 0.00 0.00 35 1015.1
20260504002503 79 136 3.0 9.0 0.00 0.00 0.00 35 1015.0
20260504002003 79 225 3.0 8.0 0.00 0.00 0.00 35 1015.1
20260504001507 79 244 3.0 11.0 0.00 0.00 0.00 35 1015.1
20260504000502 80 219 2.0 11.0 0.00 0.00 0.00 35 1015.2
20260504000012 80 218 1.0 10.0 0.00 0.00 0.00 35 1015.2
20260503235502 80 180 2.0 10.0 0.00 0.00 0.00 33 1015.2
20260503235018 80 233 3.0 13.0 0.00 0.00 0.00 34 1015.3
20260503234504 80 221 4.0 12.0 0.00 0.00 0.00 33 1015.4
20260503234001 81 222 3.0 13.0 0.00 0.00 0.00 33 1015.4
20260503233501 81 208 2.0 13.0 0.00 0.00 0.00 34 1015.4
20260503233005 81 163 2.0 9.0 0.00 0.00 0.00 34 1015.3
20260503232502 81 227 2.0 9.0 0.00 0.00 0.00 34 1015.5
20260503232002 80 180 3.0 10.0 0.00 0.00 0.00 33 1015.5
20260503231505 80 226 2.0 12.0 0.00 0.00 0.00 34 1015.5
20260503231001 81 170 3.0 12.0 0.00 0.00 0.00 33 1015.5
20260503230501 81 192 2.0 8.0 0.00 0.00 0.00 34 1015.6
20260503230008 82 216 1.0 10.0 0.00 0.00 0.00 34 1015.6
20260503225502 82 211 3.0 13.0 0.00 0.00 0.00 33 1015.6
20260503225001 82 145 1.0 13.0 0.00 0.00 0.00 34 1015.6
20260503224507 82 167 4.0 14.0 0.00 0.00 0.00 31 1015.7
20260503224001 82 182 4.0 12.0 0.00 0.00 0.00 31 1015.7
20260503223502 82 238 3.0 11.0 0.00 0.00 0.00 32 1015.8
20260503223005 82 192 5.0 11.0 0.00 0.00 0.00 31 1015.8
20260503222002 82 260 5.0 14.0 0.00 0.00 0.00 31 1015.9
20260503221001 83 340 2.0 9.0 0.00 0.00 0.00 31 1016.0
20260503220507 83 260 2.0 14.0 0.00 0.00 0.00 33 1016.1
20260503220008 83 189 5.0 16.0 0.00 0.00 0.00 30 1016.1
20260503215502 83 177 2.0 13.0 0.00 0.00 0.00 31 1016.1
20260503215001 83 196 4.0 12.0 0.00 0.00 0.00 30 1016.2
20260503214505 83 257 4.0 12.0 0.00 0.00 0.00 32 1016.3
20260503214002 83 200 4.0 14.0 0.00 0.00 0.00 30 1016.3
20260503213502 83 217 2.0 10.0 0.00 0.00 0.00 31 1016.4
20260503213012 83 213 4.0 10.0 0.00 0.00 0.00 30 1016.5
20260503212502 83 257 2.0 8.0 0.00 0.00 0.00 32 1016.6
20260503212004 83 225 1.0 14.0 0.00 0.00 0.00 32 1016.6
20260503211505 83 229 5.0 14.0 0.00 0.00 0.00 30 1016.8
20260503211003 83 271 3.0 10.0 0.00 0.00 0.00 33 1016.7
20260503210007 82 182 4.0 13.0 0.00 0.00 0.00 31 1017.1
20260503205506 82 240 3.0 10.0 0.00 0.00 0.00 35 1017.1
20260503205005 82 213 4.0 11.0 0.00 0.00 0.00 31 1017.3
20260503203502 82 236 3.0 10.0 0.00 0.00 0.00 32 1017.5
20260503203005 82 182 6.0 10.0 0.00 0.00 0.00 32 1017.7
20260503202501 83 175 1.0 9.0 0.00 0.00 0.00 35 1017.7
20260503202002 82 170 3.0 11.0 0.00 0.00 0.00 34 1017.8
20260503201001 83 178 1.0 9.0 0.00 0.00 0.00 33 1018.0
20260503200502 83 178 2.0 10.0 0.00 0.00 0.00 34 1018.1
20260503200007 82 184 3.0 10.0 0.00 0.00 0.00 34 1018.2
20260503195504 82 260 4.0 10.0 0.00 0.00 0.00 33 1018.3
20260503195002 82 217 3.0 11.0 0.00 0.00 0.00 34 1018.3
20260503194508 82 253 2.0 11.0 0.00 0.00 0.00 33 1018.3
20260503193501 81 253 0.0 15.0 0.00 0.00 0.00 35 1018.5
20260503193009 81 257 5.0 15.0 0.00 0.00 0.00 32 1018.5
20260503192501 81 229 3.0 12.0 0.00 0.00 0.00 35 1018.7
20260503192003 81 205 3.0 12.0 0.00 0.00 0.00 35 1018.9
20260503191505 81 214 6.0 12.0 0.00 0.00 0.00 35 1018.9
20260503191001 81 223 2.0 11.0 0.00 0.00 0.00 34 1018.9
20260503190501 81 162 2.0 11.0 0.00 0.00 0.00 35 1018.9
20260503190010 81 215 1.0 10.0 0.00 0.00 0.00 35 1019.1
20260503185001 80 233 4.0 14.0 0.00 0.00 0.00 36 1019.2
20260503184503 81 263 4.0 11.0 0.00 0.00 0.00 35 1019.3
20260503184002 81 232 2.0 12.0 0.00 0.00 0.00 36 1019.4
20260503183500 80 259 3.0 12.0 0.00 0.00 0.00 35 1019.5
20260503183003 80 230 5.0 12.0 0.00 0.00 0.00 37 1019.6
20260503182000 80 219 6.0 16.0 0.00 0.00 0.00 37 1019.7
20260503181505 81 187 2.0 9.0 0.00 0.00 0.00 40 1019.8
20260503181000 80 277 1.0 13.0 0.00 0.00 0.00 43 1019.8
20260503180505 80 207 4.0 13.0 0.00 0.00 0.00 39 1020.0
20260503180006 80 167 3.0 10.0 0.00 0.00 0.00 40 1020.1
20260503175500 80 238 2.0 10.0 0.00 0.00 0.00 42 1020.1
20260503175000 80 225 2.0 9.0 0.00 0.00 0.00 43 1020.4
20260503174504 79 217 2.0 9.0 0.00 0.00 0.00 43 1020.4
20260503174001 80 257 2.0 8.0 0.00 0.00 0.00 44 1020.4
20260503173500 79 215 2.0 11.0 0.00 0.00 0.00 43 1020.5
20260503173005 79 250 2.0 11.0 0.00 0.00 0.00 43 1020.5
20260503172500 78 253 4.0 11.0 0.00 0.00 0.00 42 1020.5
20260503172000 78 236 3.0 11.0 0.00 0.00 0.00 42 1020.7
20260503171504 78 206 3.0 12.0 0.00 0.00 0.00 44 1020.8
20260503170500 78 257 2.0 16.0 0.00 0.00 0.00 46 1020.9
20260503151003 71 202 4.0 10.0 0.00 0.00 0.00 54 1021.4
20260503150500 71 236 3.0 10.0 0.00 0.00 0.00 53 1021.3
20260503130959 61 214 0.0 5.0 0.00 0.00 0.00 69 1021.1
20260503130459 61 214 1.0 5.0 0.00 0.00 0.00 69 1021.1
20260503110459 52 243 0.0 0.0 0.00 0.00 0.00 86 1020.2
20260503090458 55 243 0.0 0.0 0.00 0.00 0.00 79 1020.1
20260503081502 58 243 0.0 0.0 0.00 0.00 0.00 72 1020.0
20260503080958 58 243 0.0 0.0 0.00 0.00 0.00 71 1020.0
20260503080459 59 242 0.0 0.0 0.00 0.00 0.00 70 1020.0
20260503072458 61 242 0.0 0.0 0.00 0.00 0.00 67 1020.2
20260503071958 61 243 0.0 0.0 0.00 0.00 0.00 66 1020.2
20260503071501 61 243 0.0 1.0 0.00 0.00 0.00 66 1020.2
20260503070958 61 242 0.0 1.0 0.00 0.00 0.00 66 1020.2
20260503054507 59 242 0.0 0.0 0.00 0.00 0.00 74 1020.1
20260503054003 60 243 0.0 0.0 0.00 0.00 0.00 74 1020.1
20260503053505 60 243 0.0 0.0 0.00 0.00 0.00 74 1020.1
20260503053007 60 243 0.0 0.0 0.00 0.00 0.00 73 1020.1
20260503052503 61 243 0.0 0.0 0.00 0.00 0.00 73 1020.1
20260503052003 61 243 0.0 0.0 0.00 0.00 0.00 73 1020.1
20260503051003 61 242 0.0 0.0 0.00 0.00 0.00 73 1019.9
20260503050503 61 243 0.0 0.0 0.00 0.00 0.00 72 1019.9
20260503050012 61 242 0.0 0.0 0.00 0.00 0.00 72 1019.9
20260503045503 61 243 0.0 0.0 0.00 0.00 0.00 72 1019.9
20260503045003 62 242 0.0 0.0 0.00 0.00 0.00 72 1019.8
20260503044507 62 242 0.0 0.0 0.00 0.00 0.00 72 1019.9
20260503044003 62 243 0.0 0.0 0.00 0.00 0.00 72 1019.9
20260503043008 62 242 0.0 0.0 0.00 0.00 0.00 72 1019.8
20260503042503 62 243 0.0 0.0 0.00 0.00 0.00 71 1019.8
20260503042003 62 243 0.0 0.0 0.00 0.00 0.00 71 1019.8
20260503041506 62 243 0.0 0.0 0.00 0.00 0.00 71 1019.8
20260503041003 62 242 0.0 0.0 0.00 0.00 0.00 71 1019.8
20260503040503 62 243 0.0 0.0 0.00 0.00 0.00 70 1019.9
20260503040009 62 243 0.0 0.0 0.00 0.00 0.00 70 1019.9
20260503035003 63 243 0.0 0.0 0.00 0.00 0.00 68 1019.9
20260503034506 63 243 0.0 0.0 0.00 0.00 0.00 68 1019.9
20260503034003 63 243 0.0 0.0 0.00 0.00 0.00 67 1019.8
20260503033503 63 242 0.0 0.0 0.00 0.00 0.00 66 1019.9
20260503033006 63 242 0.0 0.0 0.00 0.00 0.00 65 1019.9
20260503032505 63 243 0.0 0.0 0.00 0.00 0.00 64 1019.8
20260503031507 64 242 0.0 0.0 0.00 0.00 0.00 64 1019.7